FENGYUN 4C

Last updated on Tue Sep 22 2026 00:03:16 GMT+0000 (Coordinated Universal Time)

1 67246U 25312A 26264.47692948 -.00000327 00000+0 00000+0 0 9998 2 67246 0.0175 346.7878 0000484 286.7512 31.5269 1.00272567 2839
UTC large
Height (km)
Speed (km/s)
/
Latitude / Longitude
Inclination (degrees)
Orbital Period (minutes)
Azimuth
Elevation
Range (km)
Doppler Factor

Next 0 passes for location: London (51.5072 / 0.1276)

No passes found over London.
FENGYUN 4C